Theta_e
315 315 314 318 321 322 320 320 322 320 322 322 319 320 316 316 315 314 316 315 315 317 316 314 314 317 317 316 318 319 320 321 320 318 321 322 323 329 332 335 336 335 335 336 335 335 335 334 334 333 332 332 332 332 333 333 333 328 322 323 326 325 326 327 326 325 323 323 322 323 325 327 328 325 321 318 316 313 313 312 307 306 306 307 307 307 308 308 308 308 308 308 309 312 313 313 312
314 314 315 319 321 323 320 319 325 325 324 318 318 320 316 315 315 317 320 316 318 318 316 315 315 319 319 319 319 320 324 325 324 323 324 323 326 330 332 336 336 336 336 336 336 335 336 334 334 333 332 333 333 333 333 333 333 330 322 320 323 324 324 324 323 323 322 322 323 323 323 326 326 324 320 318 317 316 316 314 308 306 305 306 306 306 307 307 307 307 309 310 311 312 313 311 308
314 314 315 321 322 321 322 320 322 326 325 320 321 321 316 316 318 319 318 316 319 319 318 317 318 319 318 320 320 320 324 326 326 325 324 325 328 330 333 336 335 336 336 337 337 336 336 335 335 334 333 333 334 333 333 333 333 329 322 320 321 322 322 322 322 322 322 323 324 323 322 324 324 324 324 323 321 320 318 316 312 306 305 305 305 306 306 306 307 308 311 314 314 314 313 309 306
314 314 316 322 321 320 332 331 326 329 327 322 322 322 320 321 320 315 314 318 318 317 317 318 319 319 318 320 320 320 323 325 326 325 325 326 328 330 332 335 336 336 336 337 337 336 336 335 335 335 334 334 334 333 332 333 332 328 323 320 320 320 321 321 321 322 323 323 324 324 323 324 324 326 326 325 323 322 320 318 314 309 305 305 305 305 305 305 306 307 312 313 313 311 309 307 307
314 315 318 322 323 320 328 327 324 326 322 322 321 322 326 323 318 312 314 319 316 315 316 318 321 320 320 320 319 320 322 323 324 323 323 325 325 327 331 334 335 335 336 337 337 337 336 336 336 335 335 334 333 332 332 332 331 330 326 323 321 321 321 321 321 321 322 321 322 323 323 324 325 327 326 325 324 322 321 319 317 312 307 305 305 305 304 305 304 306 311 312 312 310 309 308 308
316 318 320 321 321 316 321 321 320 322 318 322 321 321 325 317 314 313 315 318 315 315 316 317 320 320 320 320 321 320 320 322 322 321 321 322 321 322 328 334 335 335 336 337 337 337 336 336 335 335 335 334 333 332 333 332 331 330 329 325 323 323 322 322 321 320 320 320 321 322 323 324 325 326 326 325 324 322 321 319 318 314 309 306 305 305 305 305 305 307 311 313 312 311 310 309 308
318 320 320 320 319 317 326 327 322 323 316 315 317 319 318 311 313 314 314 316 315 314 315 317 318 319 320 320 320 319 320 320 319 320 321 320 319 319 324 331 335 335 336 337 337 337 337 336 335 335 335 335 334 334 334 333 332 331 330 327 325 324 324 323 321 321 321 321 322 322 324 325 326 326 325 324 324 323 320 319 317 315 311 307 305 305 305 305 305 308 312 312 311 310 311 310 309
320 320 318 323 325 323 331 326 321 322 314 309 311 315 313 311 312 313 312 314 315 314 316 317 317 317 318 319 319 320 319 318 318 319 320 320 319 321 323 328 334 335 336 337 337 338 338 337 336 335 335 336 335 334 334 334 333 332 332 330 327 325 325 324 322 323 324 323 324 324 325 326 326 326 326 325 324 323 320 318 317 314 311 308 306 305 305 305 306 310 313 312 310 310 309 308 308
320 320 318 325 329 328 329 321 317 318 316 313 310 312 312 313 312 311 311 311 313 314 316 317 315 315 317 318 318 318 317 316 317 318 320 321 321 322 322 327 334 335 336 337 338 337 337 338 337 335 336 336 335 335 335 335 334 333 333 332 331 327 325 324 323 325 325 324 324 325 325 325 325 325 326 325 324 323 320 318 316 313 310 308 305 305 305 305 306 310 311 309 308 307 307 307 307
320 319 316 323 329 325 322 318 318 318 316 314 310 312 314 314 312 311 311 312 312 314 317 316 314 314 316 318 318 317 316 315 316 317 319 321 322 322 322 328 333 334 335 337 337 336 336 338 337 336 336 336 336 335 335 335 334 334 333 332 331 328 326 324 323 325 325 322 323 324 324 325 324 324 325 325 324 322 319 318 316 313 310 307 305 304 304 304 304 306 306 306 306 306 306 306 306
319 317 317 328 331 322 321 320 321 322 318 313 311 312 314 314 313 311 311 312 313 315 317 316 315 315 315 317 318 316 315 315 315 317 318 320 321 322 324 327 331 334 334 335 336 335 336 337 336 336 337 336 336 335 335 335 335 334 334 333 331 328 327 325 323 325 324 321 322 323 324 324 325 324 324 324 324 322 319 318 316 312 310 308 306 304 304 304 304 304 304 304 305 305 305 305 305
319 319 327 335 330 323 325 323 320 326 326 318 314 313 313 313 312 312 312 313 314 315 316 316 316 316 316 316 317 316 315 315 315 316 317 319 319 322 325 326 328 332 334 335 335 334 335 336 335 336 336 337 336 336 336 335 335 334 334 334 331 328 327 326 324 325 324 322 322 322 323 324 324 324 323 324 323 322 319 318 316 314 312 311 309 307 305 304 304 304 304 303 304 304 304 304 304
318 320 333 328 319 322 323 321 319 323 325 319 314 312 313 312 312 313 313 313 313 314 315 315 315 316 317 316 316 316 316 315 314 315 317 318 319 322 325 326 327 329 332 334 334 334 334 334 333 334 335 336 337 336 336 336 335 335 334 333 332 329 327 327 325 325 325 324 323 322 322 323 323 323 323 323 323 321 319 318 317 316 315 315 313 311 310 308 307 306 305 305 305 305 306 306 306
318 319 330 324 313 319 321 320 319 318 320 319 314 312 313 312 312 313 313 315 314 314 315 314 315 316 316 315 315 315 316 315 314 315 317 318 319 321 323 325 326 327 330 332 331 331 332 333 332 333 333 333 336 337 336 336 335 335 334 333 333 331 327 326 326 327 326 325 323 321 320 321 321 322 323 323 322 321 320 319 319 318 317 317 316 316 314 313 312 311 310 310 311 311 312 312 312
318 315 324 326 316 317 319 319 319 319 320 318 314 312 313 313 313 313 313 316 315 314 315 314 315 316 316 316 315 315 315 316 314 314 315 317 319 320 321 322 325 327 328 329 328 330 332 332 332 332 332 332 333 336 336 336 336 335 334 333 333 332 329 327 327 328 327 325 323 321 319 320 320 320 322 322 321 321 320 320 320 320 319 318 318 319 318 317 316 315 315 316 317 317 317 318 317
317 316 324 328 318 317 317 315 318 320 319 313 312 313 313 313 313 313 313 314 314 314 314 315 315 315 315 315 315 315 315 316 315 314 313 315 318 319 320 320 326 329 328 329 328 331 334 332 333 332 332 332 332 334 336 336 335 335 335 334 333 333 331 329 329 329 329 325 323 322 321 319 319 319 320 320 321 322 321 320 321 321 321 320 320 320 320 319 319 319 319 319 320 320 320 319 319
314 321 331 328 320 320 317 316 317 320 321 312 310 313 313 314 312 313 314 313 314 314 314 315 315 315 315 315 315 315 315 315 315 314 313 314 316 318 319 318 323 326 325 325 324 326 328 329 332 331 331 331 331 331 334 336 335 334 335 335 334 334 332 331 330 330 328 326 324 323 323 321 320 319 319 319 322 323 321 321 322 322 322 321 321 322 321 320 320 320 320 320 321 321 321 320 320
318 331 331 323 323 324 319 317 314 317 320 313 310 313 314 315 313 313 314 314 314 314 314 315 315 315 315 315 315 315 315 315 315 315 313 314 315 316 317 317 322 326 321 319 324 327 327 327 325 327 331 329 329 330 330 332 333 333 334 335 335 334 333 333 331 330 328 326 325 324 324 324 322 320 320 320 323 324 322 321 322 322 322 322 322 322 322 321 320 320 321 321 321 321 321 321 320
320 328 326 328 329 319 314 314 310 313 316 312 312 312 313 315 313 313 315 314 314 314 315 314 315 315 315 316 315 315 315 315 315 315 314 314 316 316 316 315 322 326 320 318 327 334 336 332 324 322 327 328 333 335 332 331 332 333 334 333 334 334 334 333 332 330 328 327 326 325 325 325 324 322 321 321 324 325 323 322 323 322 322 323 323 323 323 321 320 321 321 322 322 322 322 321 320
314 320 326 331 323 313 311 312 312 313 313 312 312 312 312 313 313 314 314 314 313 314 315 314 315 316 316 316 315 315 315 315 315 315 315 314 315 316 316 316 317 318 318 318 324 330 335 333 326 321 323 328 336 339 335 331 329 330 332 333 332 332 334 333 333 331 329 329 327 326 326 326 326 324 323 322 323 325 324 323 324 323 323 323 324 324 324 322 320 320 321 321 322 322 322 321 321
313 318 327 321 311 313 314 312 313 313 312 313 312 312 313 313 313 314 313 315 315 314 315 316 316 316 316 315 315 315 315 315 315 314 315 314 314 315 315 316 316 316 316 316 317 320 324 324 321 320 319 325 334 336 333 331 329 327 328 333 334 332 334 333 333 332 330 330 329 327 327 328 328 326 324 323 324 325 325 324 325 324 324 324 325 326 325 324 322 321 321 321 321 321 321 321 321
314 314 316 312 309 315 315 312 314 313 313 313 312 313 314 313 313 314 314 316 317 315 316 316 316 316 316 315 315 315 315 315 315 315 315 314 314 314 314 314 315 315 315 315 314 314 315 315 316 317 316 319 325 328 330 334 335 331 326 330 333 332 333 334 333 332 331 331 330 329 328 329 329 327 326 325 325 325 326 326 326 326 325 325 326 326 326 325 324 323 322 321 321 321 321 321 320
317 314 310 311 312 313 313 312 313 313 313 312 312 313 313 313 313 313 313 315 316 315 316 316 316 316 315 315 315 315 315 315 315 315 315 314 314 314 314 313 314 314 313 314 313 313 313 314 314 315 316 316 318 318 327 337 339 335 327 327 333 333 332 332 331 331 332 332 331 330 329 330 330 328 327 326 327 326 327 327 327 327 326 326 326 325 325 324 324 323 323 322 322 321 320 320 319
319 318 311 312 312 312 313 312 312 312 313 313 313 313 313 313 314 313 313 315 316 315 316 315 316 316 315 315 315 315 316 315 315 315 314 314 314 313 313 313 313 313 313 313 313 313 313 313 313 314 315 316 316 316 322 331 334 334 327 325 331 333 331 330 329 329 331 332 331 331 330 330 330 329 328 328 328 328 328 328 327 328 327 326 326 324 324 325 324 323 323 323 321 320 319 319 319
317 317 312 312 312 312 313 313 313 313 313 313 313 313 313 313 313 311 313 316 315 315 316 316 316 316 316 316 316 316 315 316 315 315 315 314 314 314 313 313 313 313 313 313 313 314 313 313 313 314 315 314 316 317 318 321 326 326 323 329 332 328 326 328 332 332 329 329 329 330 330 330 329 329 329 328 329 329 329 329 327 328 327 326 326 324 325 326 325 323 323 323 321 320 319 319 318
314 315 313 313 313 312 313 313 313 313 313 313 314 313 312 313 313 313 316 316 316 316 315 316 316 316 316 316 316 316 315 316 316 315 315 315 314 314 314 314 313 313 313 313 313 313 313 314 313 313 314 314 314 316 317 317 319 317 320 331 331 326 327 328 332 332 329 331 330 328 328 326 327 329 330 328 328 330 330 329 328 328 327 326 325 325 325 325 325 324 323 322 321 319 318 318 317
313 313 313 313 314 313 313 314 313 313 313 313 314 314 312 312 312 315 316 316 316 316 316 316 316 316 316 316 316 316 316 316 315 315 315 314 315 314 314 314 313 313 312 313 313 313 313 313 313 313 312 313 313 313 314 314 316 317 323 332 327 325 333 332 331 330 330 334 330 327 327 326 327 328 330 330 329 330 330 329 329 329 327 326 326 326 325 325 324 324 323 321 321 320 318 317 317
313 313 314 314 314 314 313 313 313 314 314 313 314 313 312 311 313 316 315 315 316 315 316 315 315 316 315 315 316 315 315 315 315 315 315 315 315 314 314 314 313 313 312 313 313 313 313 313 313 313 312 313 313 313 313 313 314 315 323 331 327 326 332 333 330 326 327 330 327 328 331 331 329 327 329 330 330 330 331 330 330 329 328 326 326 325 324 324 324 324 323 322 322 320 318 317 317
313 314 317 318 318 317 313 312 312 313 314 313 313 314 315 314 314 316 314 315 315 315 316 315 315 316 315 316 315 316 315 315 315 315 315 315 315 314 314 314 313 313 313 313 313 313 313 313 312 313 313 313 313 313 313 312 313 314 318 324 328 330 330 329 328 324 326 331 330 331 331 330 328 326 327 329 330 331 330 331 330 329 329 327 325 324 324 324 324 324 323 322 322 320 318 318 318
316 313 315 322 324 320 312 310 312 312 314 312 312 318 324 322 315 314 315 314 314 315 315 315 316 316 316 316 315 316 315 315 315 315 316 315 315 315 314 314 314 313 313 313 313 313 312 312 313 313 313 313 313 313 313 312 312 314 317 320 324 330 332 331 330 324 325 331 331 328 326 326 325 325 327 327 329 331 331 331 330 329 328 328 326 324 325 325 324 323 322 322 321 319 318 319 318
319 312 318 324 319 321 316 309 311 314 313 312 313 318 323 324 317 314 315 314 314 314 315 315 315 316 316 316 315 316 316 315 316 315 315 315 315 315 314 314 314 313 313 313 313 312 313 312 313 313 313 313 313 313 313 313 311 313 321 323 320 326 331 330 327 322 322 328 329 326 325 326 326 326 329 329 327 329 330 330 330 329 327 327 325 323 324 325 322 321 321 323 321 318 318 318 317
322 313 323 324 315 327 323 308 309 314 313 310 313 318 320 320 316 313 314 314 313 313 315 315 315 316 316 316 316 316 316 315 315 316 315 315 315 315 315 314 314 314 313 313 313 312 312 312 312 313 313 313 313 313 313 312 312 317 326 328 322 324 327 324 325 325 325 329 330 328 327 328 328 326 327 330 329 327 328 329 329 329 327 327 324 322 324 323 320 321 322 323 320 318 318 317 316
326 317 322 324 318 325 322 310 307 309 311 311 313 317 320 319 314 313 313 312 313 313 315 316 315 317 316 316 316 316 316 316 316 316 316 316 315 315 315 314 314 314 313 313 313 312 312 312 312 313 313 314 313 313 313 312 312 316 321 322 319 323 324 324 329 331 329 329 329 328 326 327 329 327 325 328 328 327 326 326 327 329 327 325 323 323 323 321 321 322 321 321 320 318 318 317 316
326 318 319 323 320 319 319 318 310 306 311 313 313 314 317 317 313 313 314 312 312 312 314 316 316 316 316 316 316 317 317 317 317 317 317 316 316 315 315 315 314 314 314 313 313 312 312 311 312 312 313 314 314 313 313 313 313 314 318 321 320 321 321 326 332 330 328 327 325 325 324 326 328 326 326 325 325 324 323 323 325 326 325 324 323 322 321 322 322 322 320 320 319 318 318 317 314
326 324 323 321 318 316 320 323 313 308 313 315 315 315 315 314 312 313 314 312 311 312 314 315 316 316 317 316 316 317 317 317 318 318 317 316 316 316 315 314 314 314 314 313 313 312 311 312 311 312 313 313 313 313 313 313 314 318 326 327 324 321 319 323 327 326 326 327 324 324 324 324 324 323 325 325 323 323 322 322 323 323 324 324 322 321 321 322 322 320 320 319 318 317 316 314 310
325 330 332 326 321 319 321 323 314 308 313 316 316 316 315 315 313 312 313 312 311 312 313 313 314 316 316 317 317 317 318 318 319 318 317 317 316 315 315 314 314 314 313 313 313 312 311 311 311 312 313 313 313 313 314 313 314 322 328 325 324 324 322 322 323 321 324 327 325 324 324 322 321 322 325 327 324 323 325 325 324 324 325 322 320 321 322 322 321 320 320 320 318 314 313 312 308
323 327 330 324 321 322 322 322 313 306 313 320 317 315 315 314 313 311 311 311 309 310 311 312 314 315 316 317 318 318 318 319 319 318 317 317 317 316 315 315 314 314 313 313 313 312 312 311 311 312 312 313 314 313 313 313 314 319 320 320 324 327 323 323 324 321 323 327 326 324 323 321 322 324 325 325 324 323 325 326 325 324 322 319 319 322 323 322 320 321 319 318 316 311 309 310 308
325 323 321 321 321 323 320 318 314 308 313 321 318 316 316 314 313 311 309 309 309 310 310 312 314 315 316 317 317 318 318 318 318 318 318 317 317 317 316 315 315 314 315 314 313 312 312 311 311 311 312 313 313 313 313 312 314 315 314 318 323 323 322 324 326 325 325 327 325 324 323 321 323 325 324 323 324 324 325 324 322 320 318 318 321 323 322 321 320 320 317 314 312 308 305 307 306
327 322 318 322 322 321 318 314 313 311 312 321 321 317 315 314 313 312 310 309 311 312 313 314 315 314 315 316 317 317 318 318 318 317 318 317 317 317 316 315 315 315 315 314 313 313 312 311 311 311 312 312 313 313 312 313 314 314 317 321 321 319 320 323 325 326 327 326 324 324 322 319 321 325 324 324 325 324 322 320 318 317 318 320 322 322 320 320 319 316 312 307 306 306 303 303 303
324 322 320 323 321 319 318 315 314 313 312 317 319 315 313 313 313 313 311 310 311 312 313 314 314 314 315 317 316 316 317 317 318 317 317 316 316 317 316 316 316 315 315 314 314 313 312 312 311 311 311 312 313 312 312 316 315 316 321 325 323 321 320 320 321 323 325 325 324 323 320 318 322 323 323 325 323 320 319 319 317 318 321 322 322 321 320 319 315 309 305 303 301 302 302 301 302
321 320 321 323 322 319 318 317 316 316 314 313 315 318 319 318 318 319 315 311 311 312 313 313 314 315 316 317 317 317 318 318 318 318 317 317 316 316 316 316 315 315 315 314 314 314 313 312 311 311 311 311 313 312 312 315 315 317 323 325 324 322 322 321 320 320 323 324 324 322 319 319 322 322 322 322 318 315 318 319 319 320 321 321 320 319 318 314 307 302 301 300 299 300 301 300 301
322 321 320 320 321 320 317 319 318 321 323 315 313 321 327 327 325 324 322 318 315 313 312 313 316 317 316 316 317 317 318 318 318 318 318 318 317 317 316 315 315 315 315 315 314 313 312 311 310 310 311 311 312 312 312 313 314 317 321 323 321 321 324 322 319 320 324 323 322 321 319 319 321 321 319 317 316 316 318 319 320 320 320 320 318 316 312 305 301 300 299 299 299 299 300 299 299
322 319 318 316 316 317 317 318 318 323 326 315 312 319 323 325 322 319 322 322 318 315 312 311 314 316 316 316 317 317 318 317 318 318 317 318 317 317 317 316 316 315 315 314 313 312 311 310 310 310 310 311 311 312 311 313 316 319 319 319 317 317 320 320 318 321 323 322 320 318 317 318 319 319 316 316 318 319 319 319 319 319 318 317 313 309 304 301 299 299 298 298 298 299 299 298 298
324 317 316 316 315 319 319 318 318 322 322 316 315 319 320 321 319 319 323 323 320 319 317 313 312 315 316 317 317 317 318 317 318 318 318 318 318 318 318 317 317 315 314 313 313 312 311 310 310 309 310 311 311 311 311 312 315 317 318 316 315 315 316 317 320 322 322 319 318 316 315 317 318 317 316 317 319 319 319 319 318 317 315 311 306 303 300 299 299 298 298 299 298 298 298 297 297
321 312 314 317 318 321 321 320 320 319 320 319 318 318 320 324 323 323 323 320 319 320 320 316 312 314 315 316 318 317 318 318 318 318 318 319 318 318 318 317 316 314 313 312 312 312 311 310 310 309 310 311 311 311 311 312 312 313 315 316 316 317 318 319 322 322 319 318 316 315 315 317 317 316 317 319 319 319 318 317 316 314 310 304 301 300 298 298 298 298 299 299 299 298 297 297 296
313 307 312 315 316 319 320 323 323 322 323 320 318 318 318 323 328 326 321 319 321 319 319 316 311 314 316 317 318 317 318 318 318 319 319 319 319 318 318 317 315 314 312 312 311 311 310 310 310 310 310 310 311 311 310 312 312 313 316 318 318 319 321 321 321 320 319 318 316 316 316 317 315 316 318 319 318 318 316 315 314 310 304 300 299 298 298 298 298 298 299 299 298 298 297 297 296
308 313 320 319 320 320 321 322 321 324 326 319 318 321 317 320 328 327 319 319 324 321 321 321 314 315 318 318 319 318 318 318 318 319 318 318 318 318 318 317 316 314 313 312 311 311 310 310 309 310 310 310 310 310 310 311 311 312 316 319 319 320 321 321 319 318 319 318 316 315 316 316 315 315 318 318 317 316 314 313 310 304 300 299 298 297 298 298 298 298 298 298 298 297 296 297 296
311 325 327 321 324 321 321 323 321 324 325 318 316 317 316 320 325 325 319 317 320 320 323 325 319 317 317 318 318 318 318 318 318 318 318 318 318 318 318 317 316 315 314 313 312 311 310 310 309 309 309 310 310 310 310 311 311 311 315 318 319 320 321 319 318 318 319 318 315 314 316 316 314 315 317 317 316 314 312 310 305 301 299 298 297 297 297 297 298 298 298 298 297 297 297 296 297
317 326 324 320 323 321 321 324 323 324 321 314 313 315 316 318 319 319 318 315 315 313 315 318 316 315 317 317 317 317 318 318 318 318 318 318 317 317 317 316 316 315 314 314 312 311 311 310 309 309 309 310 310 310 310 311 311 311 314 317 318 318 318 317 317 318 319 318 315 314 316 316 314 315 316 316 315 312 309 306 301 299 298 297 297 297 297 297 297 298 298 297 297 297 297 296 296
318 322 322 322 322 321 323 323 319 320 318 312 310 314 317 318 319 319 317 315 314 312 311 313 313 315 317 317 316 317 317 318 318 318 318 317 317 316 315 315 315 315 314 313 312 312 311 310 309 309 309 310 310 310 310 311 311 311 312 315 315 315 315 316 318 318 317 317 314 314 316 315 314 315 316 315 312 309 306 301 298 298 297 296 297 297 297 297 297 297 297 297 297 296 296 296 297
317 319 319 322 324 323 324 325 323 321 321 315 310 314 322 323 323 320 314 311 312 312 313 313 312 314 315 315 316 317 317 318 318 318 318 317 316 316 315 315 315 314 314 313 312 311 311 310 309 309 309 310 311 310 311 312 311 310 312 315 315 315 316 318 317 316 316 315 314 313 315 315 313 314 315 313 309 306 302 298 297 297 296 296 296 296 296 296 296 296 296 296 296 296 297 297 298
316 318 318 319 322 322 318 317 319 320 322 321 316 318 323 322 321 317 312 312 313 311 311 312 313 314 314 314 317 317 318 318 318 318 318 317 316 316 315 315 315 314 313 313 312 312 311 311 310 309 309 310 311 311 311 311 310 310 312 315 315 315 317 317 316 316 315 313 313 313 315 315 313 313 314 311 306 302 299 297 296 296 296 295 296 296 296 296 296 296 296 296 296 297 297 298 298
316 316 318 317 317 323 321 313 310 313 316 320 320 320 320 319 319 318 317 321 320 313 311 311 312 315 314 315 318 318 318 318 318 318 318 317 317 316 316 316 315 314 314 314 313 312 312 311 310 309 309 309 311 311 311 310 309 310 313 315 316 316 317 316 315 315 314 312 313 314 315 314 313 313 312 308 303 299 297 296 296 295 295 295 295 295 295 295 296 296 296 296 296 296 297 297 296
318 318 318 314 313 320 324 318 317 318 319 322 321 319 318 318 320 320 318 318 319 319 317 313 312 313 314 316 318 318 318 318 317 318 318 318 317 316 316 316 315 315 314 314 313 312 311 311 310 310 309 309 310 311 311 311 310 311 313 316 317 316 316 315 315 314 312 312 314 314 314 314 313 313 310 304 300 298 296 296 295 295 295 295 295 295 295 295 295 295 295 295 295 295 295 296 295
315 317 315 316 319 321 320 320 321 322 321 325 325 319 316 317 320 321 318 319 322 321 319 317 314 312 313 316 318 318 317 317 318 318 318 318 318 317 317 316 316 315 315 314 313 312 311 311 311 310 310 309 309 310 311 311 310 311 313 316 316 315 313 314 314 313 312 313 314 312 313 314 313 312 308 302 298 297 296 296 295 295 295 295 295 295 295 295 295 294 294 294 293 293 294 295 295
311 313 311 315 321 321 320 320 320 320 321 324 326 323 319 318 322 323 319 322 327 323 323 324 317 312 314 317 318 318 317 317 318 318 318 318 318 317 317 317 316 315 315 315 314 313 312 311 311 310 309 309 309 310 311 310 310 311 312 314 315 313 312 313 314 313 312 313 313 311 311 313 312 311 307 301 298 297 296 296 295 294 294 294 294 294 294 294 294 294 293 293 293 293 293 293 294
313 316 315 315 317 318 319 319 317 321 325 325 325 323 318 318 321 322 320 321 322 322 327 326 316 313 317 319 317 318 318 318 318 318 318 318 317 317 317 317 316 316 315 315 314 314 312 311 311 310 309 309 309 309 310 310 310 311 311 312 314 314 313 312 312 311 311 313 312 311 311 312 312 310 306 300 297 296 296 295 295 294 294 294 294 294 294 294 293 293 293 292 292 292 293 293 293
315 315 316 316 316 316 318 317 315 319 321 322 323 320 317 320 320 319 322 324 319 316 319 317 313 315 318 318 317 318 318 318 319 318 318 318 317 317 317 317 316 316 316 315 315 314 313 312 311 310 310 309 309 309 309 310 310 310 311 311 312 314 313 312 310 310 311 313 312 311 311 311 311 309 305 300 297 296 295 295 294 294 294 294 294 294 294 294 293 292 292 292 292 292 292 292 292
Wind_Speed
2 1 2 4 4 5 4 3 2 3 3 1 1 0 1 1 0 1 2 1 1 2 4 6 11 15 7 2 5 4 4 3 3 2 2 9 17 16 14 16 16 14 14 13 13 12 12 11 11 11 11 11 11 10 10 11 11 10 13 14 13 12 11 11 11 11 12 13 13 14 14 14 15 15 16 15 16 17 19 20 20 19 19 18 16 15 14 13 13 13 13 13 13 14 15 16 16
3 2 3 5 3 3 2 3 2 2 4 1 2 1 2 1 1 3 4 2 2 5 9 13 14 12 5 5 6 5 4 2 3 5 9 16 19 16 15 16 17 15 15 14 14 13 13 13 12 11 11 11 11 10 10 11 10 9 11 13 13 12 11 10 11 11 12 13 13 14 13 13 14 16 18 18 18 19 20 21 20 20 19 18 17 16 15 15 15 15 15 15 15 15 16 18 19
4 4 4 5 3 4 3 4 2 1 3 1 3 2 1 0 3 5 4 5 10 15 15 14 11 7 4 3 3 2 2 4 7 10 14 19 18 16 16 16 17 16 15 14 14 14 14 13 12 11 11 11 11 9 9 9 9 9 10 12 12 11 11 10 10 10 11 12 12 13 13 13 14 16 18 20 20 20 20 20 20 20 19 18 18 17 17 17 17 17 17 17 17 17 18 19 20
5 5 6 5 4 5 4 3 1 3 2 2 2 3 2 3 5 4 4 11 15 13 9 7 5 3 2 2 5 4 4 7 10 13 16 18 17 17 17 17 17 16 16 14 14 13 13 13 12 12 11 11 11 9 8 9 9 9 9 10 10 10 9 9 9 10 10 11 12 12 12 13 14 16 17 19 20 20 19 19 19 19 18 18 18 18 18 17 18 18 18 18 19 19 20 20 20
5 6 6 4 2 2 3 3 2 2 1 3 1 3 3 4 5 3 8 14 11 5 3 4 3 3 4 4 5 4 6 10 12 14 16 17 17 16 17 18 18 17 17 15 13 13 12 12 12 11 11 10 10 8 7 8 8 9 9 9 9 9 7 7 8 8 9 9 10 11 12 12 14 15 16 17 18 18 18 18 18 18 18 17 18 18 18 18 18 18 19 19 20 20 20 20 20
6 7 6 4 4 3 3 3 2 0 3 4 1 3 4 5 6 6 9 11 7 1 0 1 2 5 5 4 4 7 10 11 13 14 15 16 16 16 16 18 19 18 17 15 14 13 12 12 11 11 10 10 9 8 7 7 8 8 9 10 9 8 8 8 8 7 8 8 10 11 11 12 13 14 14 15 16 16 17 16 16 16 17 17 17 17 18 18 17 18 18 19 20 20 19 19 19
8 6 4 5 5 4 3 3 3 1 1 3 1 3 4 6 9 8 7 6 5 4 3 1 5 5 3 4 5 9 11 11 14 14 14 15 15 15 16 17 19 19 17 15 15 14 12 11 11 10 9 9 9 8 7 8 7 7 8 9 9 8 8 9 8 7 7 8 9 10 11 11 12 13 13 14 14 15 15 15 15 15 15 16 16 17 17 17 16 17 18 19 19 18 18 17 17
8 4 3 5 4 4 3 2 3 1 0 2 3 4 3 8 10 8 6 4 3 4 4 5 7 3 3 6 4 9 10 11 14 13 14 14 14 15 16 17 19 19 17 15 14 14 13 12 11 10 9 8 9 9 8 8 7 7 7 8 8 8 8 9 8 8 8 8 9 10 10 11 11 11 11 12 12 13 14 14 14 14 14 15 15 15 16 16 16 16 17 17 17 17 17 16 16
6 3 3 4 2 3 2 1 1 2 2 3 4 4 3 9 10 7 6 4 3 4 6 9 6 0 5 7 4 9 11 12 14 13 14 13 14 16 17 18 19 20 17 15 14 13 13 12 12 11 10 10 9 9 9 8 7 7 7 7 6 7 8 8 8 8 8 8 8 9 9 9 10 10 10 11 11 12 13 13 13 14 14 14 15 15 15 15 15 15 16 16 16 16 16 16 16
4 3 4 4 3 3 2 1 1 1 3 4 5 4 5 10 10 6 5 4 4 5 8 10 4 1 7 6 4 9 11 12 14 14 14 13 15 16 17 18 20 20 18 17 15 14 13 12 12 11 11 11 10 9 8 8 7 7 7 7 6 7 7 7 7 7 7 6 7 8 8 9 8 8 9 10 11 11 12 12 13 13 13 14 15 15 15 15 15 15 16 16 16 16 16 16 16
2 2 4 4 3 2 2 2 3 2 3 4 4 4 6 9 8 4 3 3 5 6 9 9 3 4 7 5 6 10 12 13 15 16 15 14 15 16 17 18 20 20 19 18 16 15 13 11 11 11 11 11 10 9 8 8 7 7 8 7 6 6 7 7 6 6 5 6 6 7 7 7 7 7 8 9 10 10 11 12 12 13 14 15 15 16 16 16 15 16 16 16 16 16 16 16 16
1 2 4 3 2 2 3 3 3 4 4 3 2 5 6 10 7 4 5 4 6 6 8 9 3 4 5 2 7 11 12 13 15 17 16 15 15 16 17 17 18 19 20 19 17 16 14 12 12 11 11 10 10 10 9 9 8 8 8 8 6 6 7 6 5 4 4 5 5 6 6 6 6 6 7 7 9 9 10 12 13 14 15 16 16 16 16 16 16 16 16 16 16 16 16 16 16
3 2 4 3 2 2 3 3 2 3 4 2 3 5 7 10 7 7 8 5 7 5 6 10 5 4 3 1 6 11 12 13 15 16 17 17 16 16 17 16 17 18 19 20 19 18 16 15 14 13 12 11 10 10 10 10 10 9 8 8 7 7 7 6 5 4 4 4 5 5 5 5 5 5 5 6 8 8 9 11 13 13 15 16 16 17 17 17 16 16 17 16 17 17 17 17 17
4 5 5 3 1 1 4 2 1 1 3 4 3 7 9 9 6 7 9 6 8 7 4 10 8 4 3 2 5 11 13 14 15 16 17 17 17 17 17 17 16 17 19 20 19 19 18 17 15 14 13 12 11 11 11 10 11 10 9 9 8 8 8 7 6 5 4 4 4 5 4 4 4 5 5 5 6 7 8 10 12 12 13 14 15 16 16 16 16 16 16 16 17 16 16 16 16
6 6 5 3 2 1 3 1 2 4 4 3 5 8 9 8 6 7 9 6 7 8 5 8 9 4 3 4 3 7 12 14 15 15 16 17 18 18 18 18 17 17 19 20 20 19 18 18 18 16 15 14 13 12 11 11 11 11 11 10 9 9 9 8 7 6 6 4 3 3 4 4 4 4 4 3 5 6 8 9 11 11 11 13 13 14 15 15 15 15 15 15 15 15 15 15 15
8 6 5 3 2 1 3 2 2 3 4 4 7 9 7 6 7 8 9 6 5 9 7 8 12 7 3 5 2 3 9 13 15 16 15 16 18 19 19 19 19 19 20 20 20 18 18 20 19 18 17 15 15 14 12 12 12 12 12 10 10 11 10 9 9 8 7 5 4 3 3 4 3 4 4 3 4 5 7 8 9 10 10 11 12 13 13 13 13 13 14 14 14 14 14 14 14
6 4 5 2 3 3 4 4 4 3 4 5 9 11 7 3 7 8 7 7 5 7 9 8 12 12 7 5 4 3 7 13 16 17 16 16 17 18 18 19 19 20 20 19 19 17 18 20 20 19 18 16 15 14 14 14 13 13 13 11 12 13 11 10 10 9 8 6 5 4 3 3 3 4 4 3 4 5 6 7 8 9 10 10 11 11 11 12 12 12 12 13 13 13 12 13 13
3 3 3 2 3 3 6 8 7 4 2 7 11 13 9 4 9 9 5 6 7 7 11 12 12 13 12 9 7 6 7 12 16 17 18 18 17 17 17 17 17 18 17 18 19 18 18 19 20 19 18 17 15 15 16 16 16 15 14 13 13 13 12 11 11 10 8 7 6 5 4 3 3 3 4 4 4 5 6 7 7 8 8 9 9 9 10 10 10 11 11 11 11 11 11 12 12
3 3 3 3 5 4 5 10 9 2 1 9 12 12 10 5 10 11 4 5 6 6 9 13 14 14 14 13 12 10 9 12 16 17 18 18 18 18 16 15 16 17 16 16 19 20 20 20 19 18 19 19 15 15 18 19 19 18 17 16 15 15 13 12 12 11 10 8 7 6 5 4 4 4 4 4 4 5 6 6 7 7 7 7 7 8 8 8 8 9 9 10 10 10 10 11 11
2 4 2 4 7 3 5 11 11 3 1 10 12 10 9 5 11 11 5 4 4 8 11 13 16 17 15 15 14 13 12 13 16 18 19 19 18 18 17 15 15 15 14 15 18 21 23 23 21 18 20 23 19 18 20 19 19 20 19 17 15 15 14 15 13 12 11 9 8 8 7 5 5 5 5 5 5 5 5 7 7 7 7 6 6 6 7 7 7 7 8 9 9 8 8 10 10
1 4 3 4 5 2 4 10 9 5 2 8 11 8 6 6 11 11 7 3 4 12 17 16 17 16 13 14 14 14 14 13 16 18 19 19 19 18 17 16 16 15 15 15 17 18 21 22 21 19 20 24 25 23 20 17 19 20 18 18 17 16 16 16 15 13 13 12 10 10 9 7 6 7 6 6 6 6 7 7 8 8 7 6 5 4 4 5 5 6 6 6 7 7 6 8 8
3 1 2 3 5 2 2 6 6 8 6 8 10 8 6 8 9 12 11 6 7 12 14 14 15 15 13 13 13 14 15 15 16 18 19 20 20 19 18 17 17 17 17 17 17 16 17 18 18 18 18 20 24 24 19 16 20 21 18 19 20 19 19 19 17 15 15 13 12 11 11 9 8 7 7 8 8 9 9 8 9 8 7 6 5 3 1 3 3 3 4 4 5 4 5 5 5
2 1 1 4 4 3 2 2 4 8 8 10 11 9 8 8 7 10 15 16 16 13 9 9 10 13 15 15 14 14 15 15 16 16 18 19 19 19 18 17 17 16 17 16 16 15 15 15 15 17 18 18 19 21 22 20 23 24 22 20 19 20 22 21 18 16 16 15 14 14 13 11 9 8 8 9 10 11 11 10 9 8 7 6 3 2 1 1 2 2 2 3 3 3 4 5 4
3 1 2 4 1 2 2 1 5 7 6 9 10 9 7 8 6 6 16 24 22 17 14 12 10 10 12 14 16 16 15 15 16 16 17 19 20 19 19 18 17 17 17 16 15 14 14 15 15 16 17 18 17 19 23 25 27 27 24 20 20 23 22 20 18 17 17 17 16 15 14 12 11 10 10 9 11 12 13 11 10 8 8 6 4 1 0 2 2 2 3 2 3 3 4 5 4
4 2 3 3 1 1 2 3 5 4 4 7 8 7 5 6 5 7 19 24 19 19 19 18 17 15 14 15 16 17 17 17 16 17 18 19 21 21 20 19 19 19 18 17 15 15 14 14 15 15 16 17 17 18 21 23 27 28 23 20 23 24 18 17 19 19 17 17 18 17 16 15 13 13 11 11 12 15 16 14 12 10 7 6 5 3 3 6 5 2 3 2 3 3 3 4 4
2 4 4 4 3 2 3 3 4 3 4 7 6 3 2 4 4 10 22 24 20 21 20 20 20 20 19 19 18 18 19 19 18 18 18 19 21 22 21 20 20 19 18 18 17 16 15 15 15 15 16 17 18 19 21 22 24 24 22 22 26 22 17 18 21 20 18 20 20 17 17 16 15 15 14 13 14 18 18 15 14 12 9 7 6 4 5 9 7 2 3 4 3 3 2 3 4
4 5 6 5 3 2 3 4 4 3 3 4 5 2 2 2 0 8 15 13 15 18 19 21 21 21 22 21 21 20 20 19 19 19 20 21 21 21 20 20 19 18 19 19 18 17 16 16 16 16 17 17 18 19 20 22 22 21 20 22 23 20 21 23 21 21 20 21 19 16 19 17 15 16 17 16 14 19 20 15 15 14 10 8 7 6 6 10 8 2 1 4 5 3 3 2 3
4 5 5 4 5 1 1 2 3 3 2 2 3 1 3 2 2 12 14 10 11 13 15 17 18 20 20 21 21 21 21 20 20 22 22 22 21 19 19 18 18 18 19 19 18 18 18 17 17 17 18 18 19 19 19 21 22 22 22 22 20 18 23 24 19 20 22 23 20 17 19 18 16 17 18 17 14 19 22 18 17 14 12 12 9 6 6 10 10 6 4 3 5 4 3 1 1
4 5 3 4 7 3 2 1 3 3 2 2 3 2 5 3 10 19 15 12 14 14 16 16 17 18 19 20 21 22 22 21 22 23 22 22 21 20 19 18 18 18 18 19 20 20 19 19 19 18 19 19 19 20 19 20 21 22 22 22 22 20 23 24 21 19 20 24 24 20 19 18 18 18 18 16 15 21 22 19 18 15 13 13 9 7 8 11 11 8 6 4 6 5 1 3 1
3 4 2 3 6 4 3 2 1 3 3 4 5 2 6 7 18 22 15 15 15 16 18 17 18 19 19 20 21 22 22 22 23 23 22 22 22 22 21 20 20 20 20 21 21 21 21 20 20 20 20 20 20 20 19 20 21 22 22 22 24 23 24 25 23 20 19 23 24 20 19 20 19 18 19 17 14 19 22 21 20 16 13 13 11 10 12 14 11 9 8 6 7 5 5 6 4
1 2 2 2 2 3 4 2 2 3 4 5 5 3 6 8 14 14 13 17 16 18 20 18 18 19 19 20 20 21 21 22 23 22 23 23 23 24 23 23 22 22 22 22 22 22 22 21 21 20 20 19 19 20 20 20 21 20 21 23 23 25 27 26 23 20 19 22 23 20 18 18 18 17 18 18 16 18 20 19 19 18 15 16 15 11 14 15 10 11 12 10 8 7 9 8 7
3 1 2 3 1 4 6 1 3 2 2 5 5 3 6 9 12 8 9 13 14 17 20 19 20 20 20 20 20 21 21 21 23 23 24 24 25 25 25 25 24 24 24 23 23 23 23 22 22 21 19 19 19 19 19 20 21 21 24 26 23 24 27 25 22 21 20 21 21 19 17 18 20 19 18 19 19 20 19 16 17 19 18 17 15 12 15 14 12 14 14 9 8 9 10 9 9
4 1 2 1 1 3 5 1 1 1 1 3 2 2 4 5 6 3 4 6 9 13 17 17 18 19 19 19 20 21 21 21 23 24 24 25 25 26 26 27 26 26 25 25 25 25 25 24 23 22 20 20 19 19 19 20 21 23 26 26 23 24 24 21 20 21 22 21 19 17 17 19 19 20 20 20 17 16 17 19 19 18 17 16 13 14 17 14 14 15 11 8 8 9 11 10 10
3 2 1 3 2 2 3 2 1 2 2 2 2 3 7 8 9 10 8 8 9 12 18 19 19 20 20 21 22 23 23 24 24 23 23 24 25 26 28 28 28 28 27 26 26 26 26 25 24 23 22 21 19 19 19 19 20 19 20 20 19 20 22 22 20 19 20 21 21 20 20 21 17 16 18 19 19 17 15 17 19 18 18 18 15 14 15 14 16 15 11 11 11 10 12 12 9
3 2 1 2 2 2 3 3 1 2 2 2 3 5 11 12 14 22 22 16 15 19 24 25 26 27 27 26 27 27 28 28 26 24 23 24 25 26 28 29 29 29 28 28 26 27 27 27 26 24 23 22 20 20 19 19 18 17 19 22 21 19 21 24 23 21 20 20 21 20 20 21 20 19 19 20 20 18 15 16 16 17 19 18 16 15 16 17 19 16 13 15 15 14 13 10 9
6 5 4 3 2 3 5 5 4 0 0 4 6 8 12 12 12 19 23 17 16 22 26 28 30 30 30 31 31 31 31 31 29 27 25 25 26 27 28 29 30 30 29 28 27 27 28 29 28 26 25 23 21 21 20 20 19 22 27 26 23 21 20 22 22 21 22 21 21 22 21 21 21 22 21 20 19 15 17 20 17 18 20 17 16 18 20 20 20 17 15 16 16 16 14 11 11
7 5 4 3 3 4 4 3 5 0 2 6 6 7 11 14 12 16 21 17 15 21 25 30 32 33 34 34 34 34 34 33 31 30 29 28 29 29 30 30 31 31 30 30 28 28 29 30 29 28 27 25 23 22 21 21 21 24 28 25 24 24 21 21 21 19 23 24 21 20 21 20 21 22 20 18 18 17 19 22 20 21 21 17 18 20 20 19 19 17 17 16 15 15 16 15 13
5 5 3 0 3 6 5 2 4 1 2 5 3 5 12 14 13 16 17 12 15 24 26 30 34 34 35 36 37 37 36 35 33 33 33 32 31 31 32 32 32 32 31 30 29 29 29 30 30 29 28 26 24 23 22 22 21 22 23 22 24 25 23 23 22 22 25 24 17 17 19 20 20 23 21 20 22 23 23 22 21 21 20 19 21 21 20 19 19 19 18 17 17 15 14 16 15
4 3 2 2 3 4 5 2 4 1 2 4 4 5 12 14 13 17 18 15 21 29 30 33 35 34 36 38 39 39 38 38 37 36 36 35 34 33 33 34 34 33 32 31 30 30 30 30 31 30 29 27 26 24 23 22 21 20 20 21 22 23 22 21 21 24 25 22 20 21 22 22 22 22 22 24 26 25 23 22 20 20 20 21 22 22 21 21 20 19 17 16 17 17 15 15 15
2 4 4 2 3 1 3 3 3 1 1 3 4 5 9 11 11 15 19 19 24 30 31 35 36 36 40 42 40 40 40 40 38 36 35 35 34 34 34 34 34 35 34 34 33 31 31 30 31 31 30 29 27 25 23 23 22 20 22 25 23 22 21 21 23 26 26 25 25 24 22 23 27 25 24 26 25 24 23 22 20 20 22 22 22 22 22 21 20 19 18 15 13 15 15 15 14
2 4 5 4 4 4 4 3 3 2 2 1 2 6 7 6 8 10 10 10 16 22 23 27 31 33 36 37 37 37 36 36 35 34 33 32 31 31 31 32 33 35 35 35 34 33 32 31 32 32 30 29 28 26 24 25 24 23 26 28 26 24 25 26 26 29 30 27 25 22 20 24 27 26 26 26 23 22 24 23 21 21 22 23 23 22 21 21 21 19 18 16 12 10 11 13 14
4 4 8 9 7 5 3 3 5 3 4 2 0 4 6 4 6 9 6 6 11 14 14 21 29 30 30 32 34 34 33 32 32 31 31 30 29 28 28 29 31 33 34 34 34 34 33 32 32 31 30 29 29 27 25 26 25 26 29 31 30 30 31 29 26 28 29 25 23 23 23 25 26 26 26 24 21 21 23 23 22 22 23 24 23 21 21 21 21 19 17 15 12 10 10 11 12
2 4 7 8 5 5 3 1 2 1 3 3 2 2 6 6 8 11 6 8 12 11 12 20 30 33 31 32 34 32 30 30 29 29 28 28 26 26 26 25 26 28 30 32 34 35 33 33 32 31 30 30 29 28 27 26 27 29 30 30 31 31 32 29 27 27 26 23 22 24 25 27 27 27 25 23 22 23 24 23 22 22 23 24 23 21 22 21 19 19 17 14 13 12 11 11 11
2 3 4 6 7 6 5 5 3 3 3 3 2 3 4 6 8 9 4 7 11 11 12 16 25 32 32 31 30 28 26 24 22 21 20 19 19 20 21 21 23 24 26 31 33 34 33 33 32 31 30 30 29 29 28 27 29 32 31 29 28 28 27 27 28 28 25 24 23 22 24 27 29 28 26 24 25 26 26 24 23 23 23 24 23 22 21 20 19 18 17 16 15 13 12 11 10
4 3 6 6 6 5 5 5 3 1 3 4 2 4 3 6 7 5 2 5 10 12 13 13 19 26 25 22 20 17 16 13 11 9 8 10 11 12 15 16 19 21 25 29 30 31 32 32 32 32 31 31 29 28 28 28 29 29 29 29 27 26 27 27 28 27 26 26 24 22 23 26 29 28 27 27 27 26 25 23 23 23 24 24 23 22 21 20 19 17 16 15 14 13 12 11 11
4 6 7 6 5 5 5 4 3 2 3 4 6 6 3 6 6 3 1 3 8 12 11 10 17 20 16 13 11 8 7 5 4 4 5 7 7 8 10 12 16 19 23 26 28 29 31 32 33 33 32 31 29 28 28 28 29 28 28 29 28 28 30 31 28 27 27 26 23 23 24 26 28 28 28 29 28 26 25 23 23 24 25 24 23 23 22 20 19 17 15 14 14 13 13 12 11
10 7 6 7 5 4 3 2 4 3 4 4 8 10 5 4 6 4 5 5 6 7 7 9 13 15 12 9 7 5 4 3 4 5 7 8 8 8 9 10 13 17 21 25 27 28 30 31 33 33 33 31 30 29 28 28 28 29 30 31 31 31 32 31 28 27 27 25 23 23 25 26 27 28 29 30 28 26 25 25 25 26 25 24 24 23 22 21 20 18 17 16 14 13 12 11 10
8 4 4 4 3 3 4 4 3 2 5 3 5 5 3 5 7 4 6 7 5 6 6 8 9 14 16 12 7 7 7 7 8 10 11 11 11 11 10 10 12 15 19 23 26 27 28 30 32 33 33 32 31 30 29 28 28 30 31 32 33 33 33 31 28 27 28 26 22 24 27 28 28 29 30 30 29 27 27 27 28 28 26 25 24 23 22 21 20 18 17 16 15 14 12 10 9
4 4 6 4 2 3 3 3 0 3 6 3 2 1 1 7 9 9 12 13 11 10 12 14 14 20 24 18 12 12 13 15 17 18 18 18 17 15 14 13 13 15 18 21 24 26 27 29 31 33 34 33 32 30 29 29 29 30 32 33 34 34 33 31 29 28 28 25 22 24 29 30 29 31 32 31 30 29 30 30 29 28 27 26 25 23 23 22 20 19 17 16 14 13 12 11 9
5 5 6 4 2 1 3 3 1 4 5 2 3 2 2 5 7 11 17 19 18 17 20 25 24 27 31 27 23 22 22 22 22 22 21 19 18 16 15 15 15 16 17 19 22 24 26 28 30 33 34 34 33 31 30 30 29 29 30 31 32 32 31 30 29 28 25 21 20 24 30 31 30 31 32 30 31 31 32 31 30 28 27 26 25 24 24 23 21 19 18 16 15 14 14 12 11
5 4 5 5 5 5 5 3 3 5 4 2 2 2 4 4 4 8 14 18 22 22 24 27 29 33 35 33 32 30 27 23 21 19 18 16 15 14 14 14 14 15 16 19 21 23 25 27 30 32 34 35 34 32 30 30 30 29 30 31 30 30 30 29 29 27 22 20 20 24 29 30 30 31 30 30 32 33 33 32 30 29 28 27 27 26 25 24 22 21 19 18 17 16 15 13 12
3 2 4 4 5 5 2 3 5 3 3 3 2 4 5 5 6 9 10 13 17 19 21 22 27 31 30 31 31 27 23 20 18 16 13 11 10 10 11 11 12 14 15 18 19 21 23 25 28 31 33 35 34 32 30 30 30 29 31 31 30 30 30 31 30 26 22 21 22 25 29 29 28 29 30 32 35 35 34 33 31 30 29 28 28 27 26 24 23 22 20 20 19 17 16 14 13
2 3 4 4 3 6 4 2 1 3 2 4 2 5 6 3 7 10 8 9 10 11 14 17 23 23 20 24 25 22 20 17 12 9 6 5 5 5 7 8 10 12 13 15 16 18 20 22 26 29 32 34 34 33 30 29 30 30 30 32 32 31 31 31 29 25 23 23 24 26 28 28 28 28 30 34 36 36 34 33 32 31 31 30 29 28 26 25 23 22 21 20 19 18 16 15 14
5 4 6 3 2 4 4 2 2 2 3 5 2 6 6 3 5 6 4 8 11 10 11 15 18 18 19 25 25 21 18 11 5 3 2 0 0 1 3 5 7 9 10 12 14 16 18 21 24 26 30 33 34 33 32 30 30 30 30 32 33 31 30 30 29 26 25 26 26 27 28 29 28 28 31 36 38 36 35 34 33 32 32 31 30 28 27 25 24 23 22 21 19 17 16 15 14
5 4 4 4 2 2 2 3 3 2 3 4 4 5 5 5 6 4 4 9 12 13 12 10 12 18 24 28 25 19 11 3 2 3 3 3 3 1 1 2 4 6 8 10 12 15 18 20 22 24 27 30 32 33 33 32 31 31 31 32 32 30 30 31 29 26 27 28 27 27 28 30 29 29 32 37 38 37 36 35 34 33 33 32 30 29 27 26 25 24 23 21 19 17 16 14 14
3 2 2 2 2 4 3 3 4 4 3 3 4 5 5 7 7 7 10 12 12 12 9 7 13 21 22 20 16 11 5 2 5 6 6 5 4 2 1 1 3 4 6 9 11 15 17 19 22 24 26 29 32 34 34 33 32 31 32 33 33 31 31 31 28 26 28 29 27 26 28 29 30 30 33 37 39 37 36 36 35 34 34 32 31 30 28 27 25 24 23 21 19 17 16 15 14
4 3 4 3 1 2 1 1 2 4 3 2 2 5 9 7 5 9 12 11 11 10 8 9 14 18 15 11 10 7 4 3 4 4 4 3 3 2 1 1 2 4 6 8 10 13 16 19 22 24 26 28 31 34 35 35 33 32 32 33 34 33 33 32 30 29 31 31 28 27 28 29 30 31 34 38 39 38 37 36 35 35 34 33 31 30 28 27 26 25 23 20 18 16 16 15 15
8 8 8 9 6 4 3 3 1 2 3 4 3 5 11 6 5 8 10 8 9 11 12 11 12 13 11 10 10 8 5 4 3 1 3 4 3 1 1 2 3 4 6 8 10 12 15 18 21 23 25 28 31 33 35 35 34 33 33 33 34 35 34 33 31 31 33 32 30 30 30 30 32 33 36 39 40 38 37 36 36 35 34 32 31 29 28 27 26 24 21 19 17 16 15 14 14
Wind_Direction
192 174 129 128 131 132 104 99 107 20 71 83 315 168 239 220 6 233 221 234 258 248 168 141 144 152 146 128 164 127 98 144 166 136 161 154 154 162 166 159 156 155 152 151 147 142 143 141 136 126 121 117 112 112 109 106 101 109 121 123 122 116 112 104 96 88 78 70 63 60 59 62 63 56 52 53 58 64 64 61 62 66 70 74 78 81 85 87 87 87 87 86 86 82 79 79 81
172 173 146 134 115 156 156 64 98 339 51 89 254 181 252 318 11 213 209 212 169 125 128 132 136 145 132 108 124 100 84 108 137 130 137 147 153 161 163 159 155 155 152 152 152 148 150 148 141 133 126 120 115 114 110 109 108 114 124 126 125 120 115 105 97 86 72 67 63 62 64 67 64 58 58 61 63 65 64 62 64 68 71 75 78 80 83 85 86 87 88 89 89 85 82 80 78
171 179 155 140 77 97 125 55 74 85 73 169 259 227 216 165 212 225 204 151 126 115 119 125 124 137 129 110 121 104 126 129 130 131 137 148 155 160 162 162 156 153 152 156 158 152 152 150 144 138 130 126 122 118 115 115 116 115 121 125 124 120 115 107 93 79 69 66 65 65 70 73 68 65 65 64 64 64 64 64 66 71 75 78 80 81 82 83 85 87 89 90 90 87 84 81 79
172 177 155 142 88 75 82 43 109 123 107 196 258 246 205 180 209 232 153 137 129 113 117 128 113 130 144 147 134 117 132 138 137 138 144 152 157 163 165 164 159 156 154 158 160 153 153 151 148 144 134 130 125 122 123 122 119 109 110 117 120 119 115 105 86 76 69 64 67 70 74 74 70 69 67 65 65 64 64 66 68 73 78 82 84 85 84 85 87 88 90 90 90 89 87 84 82
169 167 155 151 101 71 89 68 107 102 185 180 178 251 225 202 197 181 149 150 147 96 94 133 114 121 122 136 140 131 142 143 144 146 151 157 161 167 169 165 163 160 155 157 159 157 157 153 151 149 139 133 128 127 128 122 116 107 108 113 117 120 114 100 86 77 68 62 67 75 77 73 72 71 68 67 65 64 64 66 69 74 80 85 88 89 88 88 89 91 92 92 90 90 89 87 86
149 149 143 131 96 104 116 90 120 133 222 168 147 254 237 202 178 157 156 168 189 293 348 143 145 142 120 125 138 142 143 146 151 154 157 162 167 171 173 168 166 163 157 157 160 164 164 159 157 154 147 139 134 133 132 125 119 115 116 120 125 126 118 107 94 80 67 62 69 76 78 76 75 73 71 69 66 63 61 65 70 74 80 86 90 92 93 92 93 94 94 93 92 92 90 90 89
138 140 125 116 76 62 102 115 177 189 196 170 175 250 240 188 167 156 159 176 217 250 243 209 152 140 119 126 136 149 148 154 158 159 163 166 171 174 175 171 169 165 160 159 161 169 171 166 160 156 154 145 143 143 141 138 130 128 126 127 131 128 118 112 101 89 76 72 77 78 81 81 79 77 74 70 66 62 59 63 70 76 81 86 91 95 96 97 99 98 96 95 96 95 93 92 90
141 141 114 116 41 27 89 109 187 193 155 222 246 252 224 173 164 160 166 180 204 209 199 172 156 132 161 153 147 163 158 161 162 163 167 169 171 172 174 173 174 168 162 163 166 171 174 172 163 157 160 155 157 156 154 150 141 138 132 128 128 124 118 111 104 97 92 89 89 86 86 86 83 80 77 73 67 61 58 62 71 80 85 89 93 97 99 101 101 98 97 97 97 95 93 91 88
144 140 107 99 65 39 51 55 178 242 265 251 254 251 191 168 165 162 171 196 204 191 179 167 162 27 177 172 166 171 167 164 165 166 168 171 170 171 175 175 176 170 164 166 169 173 175 175 167 164 169 170 170 166 163 157 148 147 138 132 126 121 118 111 105 100 97 95 94 91 88 85 80 79 78 75 68 62 60 61 72 84 90 94 96 98 100 101 100 96 94 94 92 91 89 86 82
135 123 122 85 79 51 21 268 222 245 247 257 261 236 177 174 173 174 176 187 199 186 177 174 190 211 169 179 176 172 173 166 164 167 171 174 172 172 175 177 176 171 169 170 171 176 178 175 172 176 179 175 174 172 172 167 160 159 148 141 137 127 122 116 108 98 93 87 88 87 84 81 75 76 76 73 68 63 62 63 75 86 90 94 94 95 95 95 93 90 89 88 86 84 82 79 77
108 79 112 79 80 100 179 208 260 265 265 288 270 204 176 181 176 181 182 178 189 173 173 180 213 181 165 186 185 179 175 168 167 168 171 175 175 175 177 179 179 174 173 172 172 179 180 177 179 186 187 180 179 180 179 179 176 171 159 152 151 141 129 123 111 96 88 82 85 85 84 85 79 77 73 69 67 64 64 67 77 86 89 90 91 92 91 90 88 86 85 84 82 79 78 76 73
133 38 85 85 128 174 190 174 236 284 311 321 187 183 178 179 176 188 184 182 186 176 187 190 207 179 165 203 189 185 183 176 171 171 173 175 175 176 180 184 183 178 175 175 176 179 183 184 187 191 192 189 188 188 182 183 186 180 168 162 160 148 136 129 122 110 96 88 93 96 95 93 90 84 74 69 66 67 66 70 80 86 88 89 90 90 89 89 87 86 85 83 82 80 78 75 73
165 138 93 99 159 161 152 147 239 321 325 262 177 172 173 179 194 210 187 176 181 179 207 201 207 195 179 208 192 193 192 186 178 174 176 174 175 177 181 185 187 185 179 181 181 180 184 188 192 197 196 193 196 193 188 188 185 184 179 173 168 157 151 148 143 134 118 108 110 111 110 104 98 89 84 79 67 69 71 74 83 86 87 88 89 90 90 90 89 88 87 86 85 82 81 78 77
162 149 105 111 132 116 146 127 222 178 253 247 184 173 175 187 216 218 189 175 192 190 207 207 202 195 205 200 197 205 197 192 188 181 178 177 179 180 182 184 188 189 185 188 189 188 187 190 195 201 202 198 198 196 192 192 188 189 191 184 178 173 167 164 165 155 146 140 132 126 123 121 112 106 100 83 69 75 78 79 85 88 90 90 90 92 91 91 91 91 90 88 87 84 82 81 79
151 132 89 104 84 61 173 167 152 160 232 220 168 181 178 197 222 213 197 191 208 204 200 201 193 186 220 197 184 210 201 198 196 189 186 183 182 184 185 184 186 190 190 193 194 193 192 194 196 201 206 204 202 200 197 197 197 199 197 193 190 186 177 172 180 173 167 169 155 133 121 128 127 122 115 85 75 83 85 87 90 92 94 96 94 94 94 94 93 92 92 89 86 83 80 78 75
143 122 72 90 129 191 181 174 122 133 246 202 165 174 169 208 215 198 204 208 214 213 210 197 196 203 214 192 183 214 202 202 201 199 198 191 188 188 188 185 186 189 192 197 195 194 200 202 199 200 205 208 208 204 201 204 206 207 202 199 199 193 183 182 189 184 177 181 174 147 123 128 133 130 128 108 94 98 98 96 98 96 97 101 98 96 97 96 94 94 92 88 84 80 76 72 70
133 100 67 93 159 197 184 175 172 166 237 212 174 175 162 200 200 188 205 214 221 219 215 205 205 216 224 209 215 236 213 208 205 205 205 202 198 194 194 191 189 194 193 194 195 195 204 208 207 206 205 208 215 213 208 209 210 210 205 201 201 197 191 193 195 191 184 187 189 167 145 135 142 144 143 142 131 126 116 111 110 103 101 106 103 100 99 98 96 93 90 86 81 76 72 69 66
117 95 98 157 178 195 188 180 184 164 199 196 181 181 175 177 185 182 193 216 232 236 227 223 223 225 231 236 237 247 231 216 211 210 210 209 208 205 205 199 194 204 201 190 189 194 205 211 213 212 208 208 213 219 220 217 215 212 209 204 203 203 204 204 200 197 195 191 194 187 170 155 163 170 166 165 158 150 136 127 125 115 109 111 109 103 100 100 100 97 91 84 78 74 70 68 66
90 99 117 201 196 203 193 179 179 151 162 181 176 183 186 190 181 179 195 223 224 239 238 232 235 236 235 240 243 249 243 223 218 216 217 216 216 216 216 211 202 210 214 198 189 192 201 211 215 210 205 202 198 210 221 223 221 217 212 209 209 210 212 212 206 201 199 198 202 200 191 179 183 193 191 185 175 169 153 141 140 133 122 116 116 111 106 103 100 98 93 85 79 76 73 71 68
75 104 136 233 207 209 197 183 181 163 120 169 172 183 190 195 181 180 203 228 226 232 234 231 237 243 241 242 243 246 243 229 223 221 223 224 224 224 223 224 221 223 227 217 204 198 200 211 218 215 204 198 195 204 216 225 230 228 217 212 215 217 215 211 208 205 201 202 208 208 203 197 196 205 208 200 187 188 174 157 154 149 140 134 129 124 119 115 112 106 97 92 86 82 80 76 73
95 113 165 223 184 158 185 187 193 193 173 172 174 174 188 193 182 187 191 193 250 239 236 237 246 253 252 251 251 249 244 233 227 226 226 226 228 228 227 229 233 237 237 235 230 218 213 217 221 221 211 202 203 208 213 220 228 234 225 212 212 217 218 212 207 209 209 206 209 212 211 210 211 211 211 210 201 197 188 170 162 159 156 150 135 128 128 119 128 131 119 107 95 88 85 83 83
88 59 219 161 139 105 163 185 204 202 186 173 173 170 189 186 185 200 193 194 238 242 247 250 257 261 256 257 257 254 248 239 233 231 231 230 230 229 230 232 233 237 241 242 243 239 233 230 226 225 222 212 211 210 204 201 212 225 230 220 216 218 217 214 212 212 211 211 212 212 213 216 221 216 210 216 210 197 193 181 167 164 167 160 131 99 77 91 105 139 131 101 81 72 64 65 73
102 350 218 147 120 70 123 184 197 190 185 177 177 184 189 178 193 213 211 225 237 245 258 256 263 261 252 252 254 257 254 248 244 242 238 235 235 235 236 239 241 243 245 246 244 243 237 233 231 228 229 223 217 207 195 197 210 220 232 226 217 221 220 217 221 220 214 212 214 216 215 217 224 221 215 218 210 198 198 187 167 167 171 163 149 66 20 132 100 72 75 74 61 45 35 34 29
109 105 187 166 113 36 100 148 163 171 192 189 180 186 191 189 204 227 230 238 243 248 256 254 257 257 251 249 251 257 257 255 254 251 245 241 240 240 242 244 245 247 247 248 246 243 238 232 230 229 232 231 225 214 203 206 214 222 232 227 215 220 223 225 229 225 220 217 214 215 213 213 223 227 223 216 205 200 202 191 164 164 171 167 184 169 357 228 193 58 32 35 61 37 12 18 11
68 134 193 163 106 22 116 126 147 146 178 181 175 185 202 215 226 253 248 249 250 250 255 256 255 253 251 250 254 258 256 256 254 251 246 242 240 239 241 243 244 246 246 247 245 242 239 236 233 231 233 233 232 228 223 219 221 227 226 220 224 223 220 224 224 221 226 231 225 220 219 218 221 228 229 216 210 208 203 190 165 162 181 193 194 183 209 212 194 85 9 342 64 49 356 15 14
68 135 153 133 83 78 133 148 148 145 164 172 184 198 219 235 262 266 257 258 257 253 254 255 256 256 255 255 257 258 257 256 253 252 248 243 241 240 242 243 245 245 244 244 242 241 237 236 237 236 236 235 233 229 232 231 228 232 219 212 226 225 221 222 219 224 233 233 227 226 233 231 222 224 227 217 216 212 201 189 177 174 192 212 195 182 209 198 180 94 353 318 11 41 349 14 14
125 120 121 99 62 79 142 168 162 170 173 182 205 226 257 213 166 259 256 259 255 252 252 252 254 257 259 260 259 257 256 255 252 250 247 244 242 243 244 245 246 243 240 239 238 238 237 238 237 239 241 239 237 231 231 234 231 230 219 219 228 220 220 223 219 227 230 222 222 234 238 229 219 225 227 218 216 213 206 200 191 187 194 200 187 187 212 205 195 170 282 303 329 346 324 358 19
109 120 131 46 19 53 155 171 177 183 175 219 212 266 283 147 173 247 250 255 255 253 253 253 254 255 257 259 258 257 255 253 251 248 245 245 244 245 247 248 248 243 240 238 236 237 237 239 239 239 242 240 242 238 233 235 236 231 219 219 226 215 216 224 229 229 222 220 226 229 225 218 219 230 228 219 215 210 209 209 203 201 198 187 188 205 223 212 200 173 180 268 295 299 315 49 45
81 91 151 335 4 10 323 308 207 190 173 187 142 297 278 204 228 245 250 254 256 257 255 256 256 257 257 256 256 255 255 252 248 249 248 248 247 245 245 246 247 243 239 237 236 237 237 239 239 238 240 240 241 242 239 235 236 237 227 216 216 219 221 226 233 226 216 221 221 216 220 231 237 234 223 218 220 209 205 211 210 205 199 194 203 216 216 206 193 184 196 240 258 267 249 166 213
83 54 83 345 7 346 322 358 229 182 178 167 137 263 269 241 243 246 253 256 255 258 257 259 260 261 260 257 257 255 254 252 250 251 251 249 247 244 242 241 242 241 238 236 235 237 238 238 238 237 238 239 240 241 241 237 233 233 231 222 211 214 221 220 222 223 219 219 217 220 231 239 241 233 218 212 218 211 206 211 208 200 203 210 212 212 210 198 196 217 218 224 234 222 185 184 214
72 14 32 34 26 276 304 358 154 163 194 178 145 251 264 266 262 254 258 257 255 258 258 260 261 262 263 260 260 259 255 253 253 253 251 249 247 245 243 241 242 242 241 241 240 238 239 240 241 240 238 239 240 240 239 237 234 227 226 230 216 210 219 221 221 222 220 221 221 223 229 229 229 228 220 215 214 211 212 214 208 204 211 217 212 210 207 195 207 228 210 213 222 191 188 195 208
34 24 318 357 152 266 310 347 149 147 209 177 151 251 268 272 273 274 271 258 249 255 260 261 262 263 264 263 263 263 260 255 253 252 249 248 246 245 245 243 244 245 246 247 246 243 242 242 243 243 242 241 239 238 237 233 229 217 215 226 221 214 223 226 224 216 212 224 221 210 219 228 221 217 219 220 210 201 209 220 214 204 206 214 211 200 199 204 222 213 193 210 222 192 198 205 211
3 65 231 269 167 281 318 356 151 80 121 189 188 246 272 281 278 301 327 276 252 259 267 267 266 268 267 267 267 267 267 260 254 251 248 246 247 247 247 247 248 248 250 251 249 247 245 243 243 244 244 242 240 237 235 234 228 217 218 226 221 216 223 221 214 212 210 221 225 218 229 228 211 205 210 218 215 204 208 218 216 210 213 218 212 197 197 208 217 206 192 207 215 201 203 211 214
318 21 203 235 203 233 297 319 324 40 76 229 248 243 252 268 278 276 289 301 283 271 274 275 274 274 272 271 270 269 269 266 260 254 250 249 248 250 250 250 251 252 253 253 251 249 247 245 244 244 244 241 240 238 235 233 228 226 229 229 223 219 219 210 209 217 217 222 230 235 236 225 216 213 214 224 230 225 219 212 212 222 224 214 208 205 199 202 210 216 218 204 200 209 209 214 210
197 171 156 254 242 226 261 277 283 30 41 259 267 268 261 266 275 272 273 280 278 274 275 276 275 275 273 271 268 267 267 265 262 259 257 254 251 251 251 251 253 254 255 254 252 249 247 246 245 243 243 240 239 238 235 229 223 220 216 217 228 229 214 210 220 229 224 224 228 229 231 230 239 243 233 229 224 222 222 210 208 218 212 200 201 206 200 204 211 217 215 199 193 201 209 209 189
152 166 144 158 202 251 242 247 272 230 102 263 247 251 265 270 273 273 275 277 271 272 274 272 272 272 271 270 268 267 266 265 265 265 262 257 253 251 251 252 253 253 254 253 251 249 246 245 245 243 241 240 239 237 233 228 218 209 208 215 226 223 213 214 220 224 221 221 225 226 231 236 240 236 224 215 213 219 216 204 200 206 205 201 202 206 207 212 214 209 200 198 195 189 190 192 179
114 119 104 144 193 269 253 252 299 298 187 260 245 250 270 271 269 269 273 277 270 266 268 268 269 269 269 269 270 269 268 268 269 269 266 261 257 254 252 251 251 251 251 250 249 247 246 244 243 243 242 240 238 236 233 230 223 216 216 218 215 213 223 223 215 219 218 212 214 219 225 232 227 213 209 214 219 221 208 199 202 207 209 206 203 212 218 213 207 202 194 194 199 189 179 179 180
91 116 105 204 211 255 251 234 310 346 181 269 292 285 273 268 271 272 268 263 258 258 259 264 267 268 269 269 269 270 269 270 270 269 268 265 262 258 255 252 251 251 251 251 249 247 246 244 242 242 241 240 238 235 231 227 226 225 221 217 214 215 224 223 217 218 212 208 216 226 231 235 221 202 207 222 223 219 212 209 212 208 204 201 205 215 214 202 196 199 197 189 189 192 184 178 179
81 115 119 273 245 269 283 307 331 16 179 271 321 298 271 271 276 274 265 250 254 258 257 262 265 267 268 268 269 271 272 273 271 269 268 266 265 262 258 256 254 254 252 251 249 248 246 243 242 241 240 239 237 232 228 225 224 222 219 220 218 216 217 220 219 214 212 221 232 239 244 239 222 209 215 223 223 221 215 212 209 201 198 203 210 210 198 194 196 196 198 191 181 186 189 183 180
99 134 140 242 254 283 283 295 326 351 191 269 312 300 275 273 276 273 267 255 259 263 260 262 263 262 265 267 269 271 273 275 276 274 271 268 266 263 260 258 257 254 252 250 248 247 246 243 242 240 237 236 234 230 225 223 222 216 218 222 217 216 220 220 220 221 226 232 231 236 245 232 218 218 223 226 224 217 207 205 203 199 204 209 208 204 196 196 196 188 187 192 190 186 185 183 181
256 182 170 206 226 213 234 287 324 326 343 339 307 306 288 275 271 270 279 273 265 265 263 263 263 262 265 267 268 269 271 274 277 278 277 274 271 268 264 260 257 255 253 253 251 249 247 244 241 239 236 233 231 230 223 220 220 212 210 213 214 218 220 216 219 225 226 226 226 233 238 226 217 220 226 226 217 204 198 200 202 202 206 205 200 201 201 194 187 182 180 185 190 188 185 184 184
285 233 203 208 208 203 223 352 5 355 336 326 357 289 282 308 285 260 284 303 276 272 269 267 269 269 267 267 269 270 272 274 277 279 279 277 275 272 266 259 256 255 255 255 252 249 246 243 240 238 235 232 231 229 223 220 219 214 211 213 217 218 215 216 220 222 220 223 228 232 234 229 224 225 224 215 202 196 197 198 200 200 200 198 195 196 196 188 181 179 180 179 179 181 186 190 192
299 251 209 204 175 156 174 95 40 293 274 285 86 213 270 311 291 267 276 284 278 284 279 268 268 269 266 267 269 272 274 277 279 280 277 275 273 269 266 263 259 256 255 254 251 247 243 242 240 237 234 232 231 230 225 218 216 219 220 222 225 222 220 223 223 219 220 228 233 237 236 228 225 223 212 200 197 200 199 197 197 198 198 196 190 188 188 186 181 179 178 177 180 185 188 192 194
246 248 158 158 154 168 181 151 178 234 272 290 123 152 272 291 274 271 285 285 286 288 278 268 265 266 267 268 271 275 279 281 280 277 274 272 271 268 267 266 264 260 254 251 250 247 244 243 241 238 235 233 231 229 227 221 217 218 221 223 223 223 226 227 221 217 224 234 238 238 231 221 220 215 200 196 203 202 197 197 198 198 198 191 182 183 189 187 183 181 180 180 185 190 188 190 191
250 208 122 135 149 155 139 127 174 306 355 297 193 144 264 273 272 287 290 280 286 279 273 270 268 271 275 275 277 282 282 277 272 272 279 280 276 271 268 264 261 257 252 250 250 249 245 242 240 237 234 233 231 228 226 224 221 219 219 220 219 222 225 222 219 222 231 236 235 230 221 215 214 207 197 200 204 200 197 198 200 196 191 185 180 183 189 188 187 186 187 187 188 189 189 190 191
177 140 99 84 82 83 90 110 121 60 333 262 189 166 221 272 281 296 263 253 262 266 272 270 271 278 284 289 292 288 273 262 264 292 310 300 290 277 263 257 252 248 248 248 248 247 244 240 237 235 234 233 230 228 225 223 221 219 218 220 223 225 222 218 220 225 228 228 226 223 217 213 209 202 199 202 200 199 200 198 198 193 187 185 184 185 187 188 189 188 191 192 190 190 191 189 186
138 120 78 62 42 45 59 53 83 72 289 249 191 189 183 272 275 246 229 226 211 234 266 272 274 277 279 290 299 280 256 258 281 303 308 301 294 282 266 258 253 247 245 244 243 243 242 239 237 235 234 232 229 228 226 222 220 218 217 220 224 225 221 220 225 225 223 223 225 223 217 211 206 203 203 203 200 201 200 196 194 190 186 188 189 188 188 190 190 190 191 192 189 189 192 189 183
122 95 89 79 354 11 32 349 52 116 251 249 218 207 157 237 257 243 246 252 218 212 246 263 274 275 275 282 283 266 261 269 283 294 297 293 286 281 275 269 260 251 246 243 241 240 239 238 236 234 234 232 229 228 226 223 220 217 216 218 221 222 222 228 232 228 225 227 230 226 216 209 207 207 207 206 204 203 199 194 192 189 189 192 193 190 189 192 194 192 192 191 189 187 189 190 185
98 98 111 100 336 355 348 295 132 221 245 224 195 208 200 241 260 270 265 263 249 227 234 248 259 269 274 278 276 273 273 277 285 291 293 293 289 283 279 276 268 259 253 248 243 240 237 236 234 233 232 232 230 229 226 224 221 218 217 217 220 224 226 232 234 227 224 229 234 227 215 210 210 210 210 209 207 203 197 193 191 191 192 193 195 193 191 194 195 193 192 191 189 188 187 187 187
159 147 141 138 138 176 250 257 262 267 262 212 161 160 258 266 272 254 248 253 253 244 246 253 258 264 269 273 275 277 277 279 286 292 296 298 294 289 282 277 272 265 259 252 247 243 239 236 234 232 231 231 230 229 226 224 223 221 217 218 222 224 226 231 229 222 223 231 236 228 217 215 215 213 214 214 209 201 195 193 193 194 195 196 196 196 194 195 195 194 192 190 189 189 188 188 192
184 162 139 158 165 176 213 216 210 252 281 274 202 179 198 211 258 246 241 258 264 259 255 256 260 262 265 270 272 273 274 280 288 294 298 299 295 290 283 278 273 267 260 254 249 245 241 237 235 232 231 230 230 229 226 224 226 223 218 219 221 223 227 227 221 220 230 239 239 229 221 221 220 216 220 219 209 200 195 194 195 197 198 199 198 197 196 195 195 193 192 192 192 191 191 195 198
212 115 118 195 193 154 156 195 179 186 316 304 225 222 212 206 275 272 254 267 271 264 261 260 260 260 263 266 267 269 277 286 293 297 303 301 293 287 282 279 274 266 261 256 251 248 244 241 237 235 233 232 230 230 228 226 228 225 220 220 220 224 226 218 215 225 239 242 238 230 223 225 224 219 223 220 207 198 196 196 197 199 200 200 200 199 198 197 196 195 194 195 196 195 197 201 205
163 139 179 212 170 117 115 229 91 85 261 277 227 248 276 311 287 268 253 265 273 272 270 261 257 259 262 260 259 267 281 290 297 306 317 309 293 284 278 277 275 269 265 261 257 254 250 246 242 237 234 232 230 230 229 227 228 224 222 221 221 223 221 216 221 235 242 237 230 226 224 225 225 223 223 217 205 199 199 199 200 201 201 201 201 200 199 200 199 197 199 200 200 200 201 204 208
130 187 202 168 108 97 111 203 351 44 244 270 266 250 274 296 276 277 263 259 265 267 262 257 260 263 259 255 258 268 278 287 309 333 357 357 172 252 261 265 270 270 269 266 261 257 253 248 246 241 237 234 232 231 229 227 227 224 222 221 220 220 220 224 231 236 236 231 223 222 225 223 223 225 222 213 205 201 201 202 203 202 202 202 202 202 200 201 201 200 202 203 203 203 205 208 210
130 191 180 120 154 194 114 167 199 221 242 272 290 282 263 219 235 256 217 228 241 247 251 259 264 258 253 255 260 266 269 276 70 85 93 102 109 112 256 260 267 263 264 264 258 254 250 247 247 244 241 238 234 232 229 227 227 224 221 220 220 223 226 229 229 227 229 228 221 222 227 225 223 223 219 212 207 205 205 205 204 204 204 203 203 203 202 202 202 204 205 204 203 204 207 212 215
59 86 123 105 163 180 171 158 173 196 217 251 301 314 270 216 203 198 205 216 221 229 245 254 249 249 251 253 254 253 239 137 102 95 88 91 102 89 46 334 285 268 262 261 257 256 252 247 246 243 241 239 234 231 230 228 228 225 221 220 221 226 228 229 229 227 228 227 224 226 227 226 226 223 219 214 210 208 208 208 206 205 205 205 204 204 204 203 204 206 207 206 205 206 209 214 220
149 162 176 191 157 124 186 182 129 147 170 204 260 286 268 239 184 187 208 219 212 210 222 235 243 245 241 234 228 219 196 127 97 80 61 64 92 96 81 350 312 290 279 273 266 263 256 248 246 244 242 240 236 232 230 229 228 225 222 221 222 225 225 227 232 231 229 227 225 226 226 226 227 225 220 217 213 212 212 211 209 208 207 207 206 206 206 206 206 208 208 207 208 211 214 218 223
179 186 194 196 180 152 189 232 222 120 151 182 173 259 271 254 178 193 208 215 214 215 220 229 242 235 214 210 211 194 174 141 117 80 331 319 313 305 267 274 300 300 295 290 281 274 265 255 249 245 243 242 239 235 232 230 228 225 223 222 223 224 223 225 231 230 230 228 222 223 227 228 227 226 222 219 216 215 214 213 212 211 210 208 208 208 209 209 209 209 209 208 210 214 220 225 229